STARLINK-30207, 57407

Orbit data source: Space-Track

STARLINK-30207, 57407 is a payload satellite owned by SpaceX/Seattle (US) in LEO that was launched on Thu, 20 Jul 2023 UTC via an FALCON 9 launch vehicle from the Air Force Western Test Range (AFWTR). Payload-class satellites include a variety of spacecraft equipped with specific instruments for various scientific and technological missions. These include communications satellites like Starlink; space stations such as the ISS; scientific satellites like the Hubble; Earth observation satellites from companies like Planet Labs, Umbra, and HawkEye 360; GPS; miniature CubeSats for education and research; and military/defense satellites.

Loading next visibility...
Identifier
57407, 2023-102D
Orbit
LEO
Country
Flag of USUS
Related business
Manufacturer
SpaceX/Seattle
Mission
Operational Commercial Communications
Bus & Motor
STARLINK V2M, Unknown motor
Mass
730 kg wet, ~700 kg dry
Launch date (UTC)
2023-07-20 (3 years ago)
Launch vehicle
FALCON 9
Launch site
Air Force Western Test Range (AFWTR)
Object type
Payload
Rocket body
Debris
Shape & HBR
Box + 2 Pan, 17.7 m
Radar Cross Section
33.884 m², Large (>1 m²)

Expand to show TLE details & history
Last TLE update: 2 days ago

TLE from 2 days ago
0 STARLINK-30207
1 57407U 23102D   26170.98703618  .00000670  00000-0  33854-4 0  9999
2 57407  43.0011  16.3491 0001281 274.2935  85.7770 15.27583473162066
Epoch: 2026-06-19T23:41Z
TLE epoch observation values (Epoch: 2026-06-19T23:41:19.925Z)
Latitude
-0.00006°
Longitude
112.80788°
Altitude
482.75 km
Speed
7.626 km/s
True Right ascension
01h 05m 23s
True Declination
0° 00' 00"
Sunlit
Object was in daylight at epoch
Visualization orbit readout
Latitude
Unknown
Longitude
Unknown
Altitude
Unknown
Speed
Unknown
Apparent Right ascension
Unknown
Apparent Declination
Unknown
Sunlit
N/A
Visualization observer readout
Local Sidereal Time
21:29:57
Azimuth
Unknown
Elevation
Unknown
Doppler factor
Unknown
Orbital elements
Apogee altitude
485.863 km
Perigee altitude
484.105 km
Semi-major axis
6,863.121 km
Eccentricity
0.00013
Inclination
43.0011°
RAAN
16.3491°
Arg. of periapsis
274.2935°
True anomaly
85.79164°
Mean anomaly
85.777°
Eccentric anomaly
85.78432°
Mean motion
3.81734 °/min
Orbital period
94.31 mins
BSTAR
0.000033854
Loading maneuver chart data...
Computing Atmospheric mass density...
Loading historical data...
Loading historical data...
Loading historical data...
Loading historical data...
Loading historical data...
Loading historical data...
Loading historical data...

Documentation

Showing up to 5 results
|